Location: Newark
(13.8117°N, 3.6025°W)
Time: 04:30:36
(UTC+00:00)

Vanguard 2 - Pass Details

Date: 31 August 2019
Orbit: 554 x 2937 km, 32.9° (Epoch: 14 October)

Event Time Altitude Azimuth Distance (km) Brightness Sun altitude
Rises 20:39:24 0° 257° (WSW) 5,933 12.8 -32.1°
Reaches altitude 10° 20:46:32 10° 234° (SW) 5,362 12.1 -33.7°
Maximum altitude 20:53:23 14° 208° (SSW) 5,317 11.8 -35.3°
Drops below altitude 10° 21:00:45 10° 183° (S) 5,760 11.8 -37.0°
Enters shadow 21:04:49 - 172° (S) 6,163 11.9 -37.9°
Sets 21:09:22 0° 161° (SSE) 6,701 - -38.9°
